Home > Weather > Durham > Past weeks

Flag for United Kingdom Weather for the Past 2 Weeks in Durham, England, United Kingdom

Now
39 °F

Passing clouds.


Feels Like: 35 °F
Forecast: 37 / 50 °F
Wind: 6 mph from South

Location: Newcastle

Current Time: Feb 6, 2016 at 10:25:11 AM

Latest Report: Feb 6, 2016 at 9:50 AM


Visibility: N/A

Pressure: 29.33 "Hg

Humidity: 87%

Dew point: 36 °F

Location of DurhamLocation

Historic Weather in Durham — Graph

°F

Durham Temperature Yesterday

Maximum temperature yesterday: 50 °F (at 1:50 AM)
Minimum temperature yesterday: 39 °F (at 10:20 PM)
Average temperature yesterday: 47 °F

High & Low Weather Summary for the Past Weeks

 TemperatureHumidityPressure
High57 °F (Jan 24, 2:20 PM)100% (Jan 22, 11:50 AM)30.24 "Hg (Jan 22, 11:50 AM)
Low36 °F (Jan 30, 6:50 PM)53% (Feb 2, 3:20 PM)29.21 "Hg (Jan 27, 9:20 AM)
Average45 °F77%29.72 "Hg
* Reported Jan 22 9:20 AM — Feb 6 9:20 AM, Durham, Weather by CustomWeather, © 2016

Note: Actual official high and low records may vary slightly from our data, if they occured in-between our weather recording intervals... More about our weather records

Advertising

Durham Weather History for the Previous 24 Hours

 ConditionsComfort  
Time TempWeatherWind HumidityBarometerVisibility
9:20 AM
Sat, Feb 6
39 °FScattered clouds.12 mph81%29.36 "HgN/A
8:50 AM39 °FScattered clouds.8 mph81%29.39 "HgN/A
8:20 AM39 °FPassing clouds.5 mph81%29.42 "HgN/A
7:20 AM39 °FPassing clouds.6 mph81%29.45 "HgN/A
6:50 AM39 °FPassing clouds.12 mph81%29.45 "HgN/A
6:20 AM39 °FPassing clouds.5 mph81%29.45 "HgN/A
5:50 AM37 °FPassing clouds.6 mph81%29.47 "HgN/A
5:20 AM37 °FPassing clouds.5 mph87%29.47 "HgN/A
4:50 AM37 °FClear.10 mph87%29.50 "Hg10 mi
4:20 AM37 °FClear.8 mph81%29.47 "Hg10 mi
3:50 AM37 °FPassing clouds.7 mph81%29.50 "HgN/A
3:20 AM37 °FClear.6 mph81%29.53 "Hg10 mi
2:50 AM37 °FClear.6 mph81%29.53 "Hg10 mi
2:20 AM37 °FClear.7 mph81%29.56 "Hg10 mi
1:50 AM37 °FClear.9 mph81%29.53 "Hg10 mi
1:20 AM37 °FClear.7 mph81%29.53 "Hg10 mi
12:20 AM37 °FPassing clouds.7 mph87%29.53 "HgN/A
11:50 PM
Fri, Feb 5
39 °FPassing clouds.9 mph87%29.56 "HgN/A
11:20 PM39 °FPassing clouds.10 mph87%29.53 "HgN/A
10:50 PM39 °FPassing clouds.14 mph87%29.53 "HgN/A
10:20 PM39 °FPassing clouds.13 mph87%29.50 "HgN/A
9:50 PM41 °FPassing clouds.15 mph87%29.53 "HgN/A
9:20 PM41 °FPassing clouds.12 mph87%29.50 "HgN/A
8:50 PM41 °FPassing clouds.10 mph87%29.50 "HgN/A
8:20 PM43 °FScattered showers. Passing clouds.23 mph81%29.50 "HgN/A
7:50 PM48 °FPassing clouds.21 mph76%29.47 "HgN/A
7:20 PM48 °FPassing clouds.20 mph76%29.47 "HgN/A
6:50 PM48 °FPassing clouds.18 mph76%29.50 "HgN/A
6:20 PM48 °FPassing clouds.20 mph76%29.50 "HgN/A
5:50 PM48 °FPassing clouds.17 mph76%29.53 "HgN/A
5:20 PM48 °FPassing clouds.17 mph76%29.53 "HgN/A
4:50 PM50 °FScattered clouds.20 mph71%29.56 "HgN/A
4:20 PM50 °FScattered clouds.29 mph71%29.56 "HgN/A
3:50 PM50 °FScattered clouds.26 mph67%29.59 "HgN/A
3:20 PM50 °FScattered showers. Scattered clouds.18 mph71%29.59 "HgN/A
2:50 PM50 °FScattered showers. Scattered clouds.23 mph71%29.62 "HgN/A
2:20 PM50 °FScattered showers. Scattered clouds.17 mph71%29.65 "HgN/A
1:50 PM50 °FScattered showers. Scattered clouds.17 mph71%29.68 "HgN/A
1:20 PM50 °FScattered showers. Scattered clouds.17 mph71%29.68 "HgN/A
12:20 PM50 °FScattered clouds.13 mph71%29.74 "HgN/A
11:50 AM50 °FScattered clouds.21 mph71%29.74 "HgN/A
11:20 AM50 °FPassing clouds.20 mph71%29.77 "HgN/A
10:50 AM50 °FScattered clouds.23 mph71%29.77 "HgN/A
Weather by CustomWeather, © 2016

See weather overviewHow to use our weather pages